Dover AFB, DE

2:07 AM EDT on August 19, 2017 (GMT -0400)
Dover Air Force Base

Weather History for KDOV - January, 2013

Change the Weather History Date:

Wednesday, January 2, 2013

  Actual Average Record
Temperature  
Mean Temperature 31 °F -  
Max Temperature 35 °F 45 °F 66 °F (2000)
Min Temperature 27 °F 26 °F 6 °F (1968)
Degree Days  
Heating Degree Days 34    
Moisture  
Dew Point 18 °F    
Average Humidity 58    
Maximum Humidity 72    
Minimum Humidity 43    
Precipitation  
Precipitation 0.00 in - - ()
Sea Level Pressure  
Sea Level Pressure 30.11 in    
Wind  
Wind Speed 8 mph (NW)    
Max Wind Speed 14 mph    
Max Gust Speed -    
Visibility 10 miles    
Events      
Averages and records for this station are not official NWS values.
T = Trace of Precipitation, MM = Missing Value Source: NWS Daily Summary

Daily Weather History Graph

Daily Weather History Graph

Search for Another Location

Airport or City:

Trip Planner

Search our weather history database for the weather conditions in past years. The results will help you decide how hot, cold, wet, or windy it might be!

Date:

Astronomy

Jan. 02, 2013 Rise Set
Actual Time 7:21 AM EST 4:51 PM EST
Civil Twilight 6:51 AM EST 5:20 PM EST
Nautical Twilight 6:17 AM EST 5:54 PM EST
Astronomical Twilight 5:45 AM EST 6:26 PM EST
Moon 10:18 PM EST (1/2) 10:04 AM EST (1/2)
Length of Visible Light 10h 29m
Length of Day
9h 29m
Waning Gibbous, 75% of the Moon is Illuminated
Jan 2
Waning Gibbous
Jan 4
Last Quarter
Jan 11
New
Jan 18
First Quarter
Jan 26
Full

Hourly Weather History & Observations

Time (EST) Temp. Windchill Dew Point Humidity Pressure Visibility Wind Dir Wind Speed Gust Speed Precip Events Conditions
12:55 AM 35.4 °F 28.4 °F 23.7 °F 62% 30.01 in 10.0 mi NW 9.2 mph - N/A   Clear
1:55 AM 34.7 °F 28.8 °F 25.3 °F 69% 30.02 in 10.0 mi North 6.9 mph - N/A   Clear
2:55 AM 34.2 °F 26.8 °F 22.8 °F 63% 30.01 in 10.0 mi NNW 9.2 mph - N/A   Scattered Clouds
3:55 AM 32.9 °F 26.7 °F 23.5 °F 68% 30.02 in 10.0 mi Variable 6.9 mph - N/A   Overcast
4:55 AM 32.0 °F 26.4 °F 22.1 °F 67% 30.02 in 10.0 mi North 5.8 mph - N/A   Overcast
5:55 AM 30.9 °F 25.2 °F 22.3 °F 70% 30.04 in 10.0 mi North 5.8 mph - N/A   Mostly Cloudy
6:55 AM 30.0 °F 26.5 °F 21.2 °F 70% 30.06 in 10.0 mi North 3.5 mph - N/A   Mostly Cloudy
7:55 AM 28.8 °F 23.7 °F 20.8 °F 72% 30.08 in 10.0 mi NNW 4.6 mph - N/A   Clear
8:55 AM 30.9 °F 27.5 °F 19.8 °F 63% 30.10 in 10.0 mi North 3.5 mph - N/A   Clear
9:55 AM 32.9 °F 25.9 °F 17.6 °F 53% 30.13 in 10.0 mi North 8.1 mph - N/A   Clear
10:55 AM 34.2 °F 25.7 °F 16.7 °F 49% 30.12 in 10.0 mi NW 11.5 mph - N/A   Clear
11:55 AM 35.1 °F 26.4 °F 16.5 °F 47% 30.09 in 10.0 mi NW 12.7 mph - N/A   Clear
12:55 PM 35.4 °F 28.4 °F 15.4 °F 44% 30.07 in 10.0 mi NW 9.2 mph - N/A   Clear
1:55 PM 35.4 °F 26.4 °F 14.7 °F 43% 30.08 in 10.0 mi West 13.8 mph - N/A   Clear
2:55 PM 35.1 °F 26.9 °F 14.4 °F 43% 30.10 in 10.0 mi NW 11.5 mph - N/A   Clear
3:55 PM 33.6 °F 25.0 °F 13.5 °F 44% 30.12 in 10.0 mi WNW 11.5 mph - N/A   Clear
4:55 PM 31.3 °F 22.7 °F 14.7 °F 50% 30.14 in 10.0 mi NW 10.4 mph - N/A   Clear
5:55 PM 29.1 °F 24.1 °F 14.9 °F 55% 30.16 in 10.0 mi NW 4.6 mph - N/A   Clear
6:55 PM 28.6 °F 23.5 °F 15.1 °F 57% 30.18 in 10.0 mi NW 4.6 mph - N/A   Clear
7:55 PM 28.4 °F 22.2 °F 14.9 °F 57% 30.18 in 10.0 mi NW 5.8 mph - N/A   Clear
8:55 PM 27.5 °F 20.2 °F 15.8 °F 61% 30.18 in 10.0 mi NW 6.9 mph - N/A   Clear
9:55 PM 28.6 °F 22.4 °F 14.9 °F 57% 30.21 in 10.0 mi WNW 5.8 mph - N/A   Clear
10:55 PM 28.6 °F 20.7 °F 14.9 °F 57% 30.23 in 10.0 mi WNW 8.1 mph - N/A   Clear
11:55 PM 27.7 °F 19.6 °F 16.2 °F 62% 30.22 in 10.0 mi NW 8.1 mph - N/A   Mostly Cloudy